Regional Weather Roundup
Issued by NWS

Home | Current Version | Previous Version | Graphics & Text | Print | Product List | Glossary On
Versions: 1 2 3 4 5 6 7 8 9 10 11 12 13 14 15 16 17 18 19 20 21 22 23 24 25 26 27 28 29 30 31 32 33 34 35 36 37 38 39 40 41 42 43 44 45 46 47 48 49 50
000
ASUS43 KFSD 291702
RWRSD

WEATHER ROUNDUP FOR SOUTH DAKOTA
NATIONAL WEATHER SERVICE SIOUX FALLS SD
1200 PM CDT FRI APR 29 2016

NOTE: "FAIR" INDICATES FEW OR NO CLOUDS BELOW 12,000 FEET WITH NO
SIGNIFICANT WEATHER AND/OR OBSTRUCTIONS TO VISIBILITY.


SDZ001>005-009-010-012>017-291800-
NORTHWEST AND NORTH CENTRAL SOUTH DAKOTA

CITY           SKY/WX    TMP DP  RH WIND       PRES   REMARKS
BUFFALO          N/A     47  34  60 SE12      30.04R
FAITH            N/A     47  35  63 E9        30.11R
MOBRIDGE       SUNNY     55  36  48 NE9       30.09F
$$

SDZ012>016-024>037-041>051-057-063-072>074-291800-
SOUTHWEST AND SOUTH CENTRAL SOUTH DAKOTA

CITY           SKY/WX    TMP DP  RH WIND       PRES   REMARKS
RAPID CTY ARPT CLOUDY    40  34  79 E8        30.09S
PIERRE         PTSUNNY   51  36  56 E16       30.10R
CUSTER         CLOUDY    34  30  85 E12G18    30.02R WCI  25
ELLSWORTH AFB  CLOUDY    39  37  91 E5        30.09S
PHILIP         CLOUDY    46  36  68 E12       30.10R
PINE RIDGE     CLOUDY    40  35  83 NE13      30.04F
WINNER         CLOUDY    42  36  79 E14       30.09R
$$

SDZ004>011-016>023-039-040-291800-
NORTHEAST SOUTH DAKOTA

CITY           SKY/WX    TMP DP  RH WIND       PRES   REMARKS
ABERDEEN       SUNNY     54  38  54 NE6       30.14F
WATERTOWN      MOSUNNY   50  36  58 NE15      30.13S
BROOKINGS      CLOUDY    46  39  76 NE14G22   30.12S
SISSETON         N/A     55  38  52 E8        30.13F
$$

SDZ017-020-022-023-036>040-048>070-291800-
SOUTHEAST SOUTH DAKOTA

CITY           SKY/WX    TMP DP  RH WIND       PRES   REMARKS
SIOUX FALLS    CLOUDY    44  38  79 E12       30.14R
HURON          PTSUNNY   50  39  66 NE13G21   30.12F
MITCHELL       CLOUDY    47  39  74 E16       30.13S
YANKTON        CLOUDY    43  37  81 E14       30.13R
$$

ABBREVIATIONS USED IN REMARKS
   TC - TEMPERATURE IN CELSIUS
  WCI - WIND CHILL INDEX
   HX - HEAT INDEX
  VSB - VISIBILITY





USA.gov is the U.S. government's official web portal to all federal, state and local government web resources and services.